This demonstration page uses our WeatherBlox Daily Observations layout. Learn more.

Left ArrowRight Arrow

Hourly Observations for February 27, 2019

Temp ( °F °C ) Dew Point ( °F °C ) Humidity (%) Winds ( mph kmh ) Pressure ( in mb ) Visibility ( mi km ) Precip ( " mm )
12:53 am 00:53 Cloudy 56 13.3 51 10.6 84 84 Calm 30.19 1023 10 16 0.00 0.00
1:53 am 01:53 Cloudy 55 12.8 51 10.6 87 87 Calm 30.18 1022 10 16 0.00 0.00
2:26 am 02:26 Cloudy 56 13.3 51 10.6 84 84 Calm 30.19 1022 10 16 0.00 0.00
2:36 am 02:36 Cloudy 56 13.3 51 10.6 84 84 Calm 30.19 1022 10 16 0.00 0.00
2:44 am 02:44 Cloudy 56 13.3 51 10.6 84 84 Calm 30.19 1022 10 16 0.00 0.00
2:53 am 02:53 Cloudy 57 13.9 50 10 78 78 Calm 30.17 1022 10 16 0.00 0.00
3:08 am 03:08 Cloudy 56 13.3 51 10.6 84 84 Calm 30.18 1022 10 16 0.00 0.00
3:44 am 03:44 Cloudy 55 12.8 51 10.6 87 87 Calm 30.17 1022 10 16 0.00 0.00
3:53 am 03:53 Cloudy 57 13.9 51 10.6 81 81 Calm 30.15 1021 10 16 0.00 0.00
4:46 am 04:46 Cloudy 56 13.3 51 10.6 84 84 Calm 30.17 1022 10 16 0.00 0.00
4:53 am 04:53 Cloudy 55 12.8 52 11.1 90 90 Calm 30.16 1021 10 16 0.00 0.00
5:53 am 05:53 Cloudy 56 13.3 52 11.1 87 87 Calm 30.17 1022 10 16 0.00 0.00
6:38 am 06:38 Cloudy 55 12.8 53 11.7 93 93 Calm 30.19 1022 10 16 0.00 0.00
6:53 am 06:53 Cloudy 56 13.3 53 11.7 90 90 Calm 30.18 1022 10 16 0.00 0.00
7:53 am 07:53 Cloudy 56 13.3 55 12.8 97 97 Calm 30.18 1022 10 16 0.00 0.03
8:53 am 08:53 Cloudy with Mist and Fog 57 13.9 56 13.3 96 96 Calm 30.19 1022 6 10 0.00 0.03
9:53 am 09:53 Mostly Cloudy 59 15 57 13.9 93 93 Calm 30.19 1022 9 14 0.00 0.00
10:53 am 10:53 Mostly Cloudy 60 15.6 58 14.4 93 93 Calm 30.18 1022 9 14 0.00 0.00
11:53 am 11:53 Cloudy 61 16.1 58 14.4 90 90 SW 3 6 30.17 1022 10 16 0.00 0.00
12:53 pm 12:53 Cloudy 62 16.7 58 14.4 86 86 Calm 30.14 1021 10 16 0.00 0.00
1:53 pm 13:53 Mostly Cloudy 65 18.3 57 13.9 76 76 Calm 30.11 1020 10 16 0.00 0.00
2:53 pm 14:53 Mostly Cloudy 66 18.9 56 13.3 70 70 S 5 7 30.08 1019 10 16 0.00 0.00
3:46 pm 15:46 Cloudy 66 18.9 56 13.3 70 70 S 3 6 30.06 1018 10 16 0.00 0.00
3:53 pm 15:53 Cloudy 66 18.9 56 13.3 70 70 VRB 5 7 30.06 1018 10 16 0.00 0.00
4:06 pm 16:06 Cloudy 67 19.4 56 13.3 68 68 Calm 30.05 1018 10 16 0.00 0.00
4:53 pm 16:53 Cloudy 67 19.4 55 12.8 66 66 SW 5 7 30.04 1017 10 16 0.00 0.00
5:53 pm 17:53 Mostly Cloudy 67 19.4 56 13.3 68 68 S 5 7 30.04 1017 10 16 0.00 0.00
6:53 pm 18:53 Clear 63 17.2 57 13.9 81 81 Calm 30.04 1017 10 16 0.00 0.00
7:53 pm 19:53 Clear 57 13.9 56 13.3 96 96 Calm 30.05 1018 10 16 0.00 0.00
8:53 pm 20:53 Clear 55 12.8 55 12.8 100 100 Calm 30.07 1018 10 16 0.00 0.00
9:53 pm 21:53 Clear 55 12.8 54 12.2 96 96 Calm 30.07 1018 10 16 0.00 0.00
10:53 pm 22:53 Clear 54 12.2 53 11.7 97 97 Calm 30.06 1018 10 16 0.00 0.00
11:53 pm 23:53 Clear 55 12.8 55 12.8 100 100 SSW 3 6 30.05 1018 8 13 0.00 0.00

Powered by AerisWeather